Location: Unspecified
(17.6330°N, 0.0000°E)
Time: 10:29:50
(UTC+00:00)

Transit 2A Rocket - Visible Passes

Search period start: 16 June 2019 00:00
Search period end: 26 June 2019 00:00
Orbit: 586 x 917 km, 66.7° (Epoch: 16 June)

Date Brightness Start Highest point End Pass type
(mag) Time Alt. Az. Time Alt. Az. Time Alt. Az.
16 Jun 7.0 20:12:55 10° NE 20:14:02 11° NE 20:14:02 11° NE visible
16 Jun 7.4 21:52:51 10° NW 21:53:57 16° NW 21:53:57 16° NW visible
17 Jun 6.2 21:10:05 10° NNW 21:12:47 33° NNW 21:12:47 33° NNW visible
18 Jun 5.5 20:27:53 10° N 20:31:40 37° NE 20:31:40 37° NE visible
19 Jun 6.2 19:46:22 10° NNE 19:49:45 19° ENE 19:50:36 18° ENE visible
19 Jun 7.0 21:28:27 10° NW 21:30:32 19° WNW 21:30:32 19° WNW visible
20 Jun 5.3 20:45:13 10° NNW 20:49:31 51° W 20:49:31 51° W visible
21 Jun 4.6 20:02:38 10° NNW 20:07:24 68° ENE 20:08:34 47° SE visible
22 Jun 5.6 19:20:38 10° N 19:24:50 30° ENE 19:27:40 16° ESE visible
22 Jun 7.1 21:04:45 10° WNW 21:06:56 13° WSW 21:07:36 13° WSW visible
23 Jun 6.2 20:20:37 10° NW 20:24:40 30° WSW 20:26:46 20° SSW visible
24 Jun 4.8 19:37:38 10° NNW 19:42:20 70° WSW 19:45:58 15° SSE visible
25 Jun 4.9 18:55:16 10° N 18:59:52 50° ENE 19:04:07 10° SE visible
